• In Netherlands
  • List of Countries
  • For 7 days
  • Water Temperature
  • Satellite Maps
  • Weather Map
  • Weather Widgets
  • user-avatar
    Login

    Hourly Weather Sidi Bu-l-Abbas

    Today, 24 April, Monday

    Time Temperature Precipitation Wind Pressure Humidity
    00:00 +14°C° 0.1 mm 1 mps 719 mmHg 79%
    01:00 +14°C° 0 mm 1 mps 719 mmHg 80%
    02:00 +13°C° 0 mm 1 mps 719 mmHg 80%
    03:00 +13°C° 0 mm 1 mps 718 mmHg 81%
    04:00 +13°C° 0 mm 1 mps 718 mmHg 79%
    05:00 +14°C° 0 mm 1 mps 719 mmHg 78%
    06:00 +14°C° 0 mm 1 mps 719 mmHg 76%
    07:00 +18°C° 0 mm 1 mps 719 mmHg 67%
    08:00 +20°C° 0 mm 1 mps 720 mmHg 58%
    09:00 +22°C° 0 mm 1 mps 720 mmHg 49%
    10:00 +24°C° 0 mm 2 mps 720 mmHg 45%
    11:00 +25°C° 0 mm 2 mps 720 mmHg 41%
    12:00 +26°C° 0 mm 3 mps 720 mmHg 38%
    13:00 +26°C° 0.1 mm 3 mps 719 mmHg 38%
    14:00 +26°C° 0.1 mm 3 mps 719 mmHg 39%
    15:00 +26°C° 0.1 mm 4 mps 718 mmHg 40%
    16:00 +25°C° 0.1 mm 3 mps 718 mmHg 45%
    17:00 +22°C° 0.1 mm 3 mps 718 mmHg 50%
    18:00 +21°C° 0.1 mm 2 mps 718 mmHg 55%
    19:00 +19°C° 0.1 mm 2 mps 718 mmHg 63%
    20:00 +18°C° 0.1 mm 1 mps 718 mmHg 71%
    21:00 +15°C° 0.1 mm 1 mps 718 mmHg 80%
    22:00 +15°C° 0.1 mm 1 mps 718 mmHg 80%
    23:00 +15°C° 0.1 mm 1 mps 718 mmHg 81%

    Tomorrow, 25 April, Tuesday

    Time Temperature Precipitation Wind Pressure Humidity
    00:00 +15°C° 0.1 mm 1 mps 718 mmHg 82%
    01:00 +15°C° 0.2 mm 1 mps 718 mmHg 82%
    02:00 +15°C° 0.2 mm 1 mps 718 mmHg 83%
    03:00 +14°C° 0.2 mm 0 mps 717 mmHg 84%
    04:00 +15°C° 0.1 mm 1 mps 717 mmHg 83%
    05:00 +16°C° 0.1 mm 1 mps 717 mmHg 83%
    06:00 +16°C° 0.1 mm 1 mps 717 mmHg 82%
    07:00 +19°C° 0 mm 1 mps 717 mmHg 72%
    08:00 +21°C° 0 mm 1 mps 718 mmHg 62%
    09:00 +24°C° 0 mm 1 mps 718 mmHg 52%
    10:00 +25°C° 0 mm 2 mps 718 mmHg 47%
    11:00 +26°C° 0 mm 3 mps 718 mmHg 42%
    12:00 +27°C° 0 mm 4 mps 718 mmHg 37%
    13:00 +27°C° 0 mm 4 mps 717 mmHg 37%
    14:00 +27°C° 0 mm 4 mps 717 mmHg 38%
    15:00 +27°C° 0 mm 4 mps 716 mmHg 39%
    16:00 +25°C° 0 mm 4 mps 716 mmHg 44%
    17:00 +24°C° 0 mm 3 mps 716 mmHg 49%
    18:00 +21°C° 0 mm 3 mps 715 mmHg 54%
    19:00 +19°C° 0 mm 2 mps 715 mmHg 63%
    20:00 +17°C° 0 mm 2 mps 716 mmHg 72%
    21:00 +15°C° 0 mm 2 mps 716 mmHg 81%
    22:00 +15°C° 0 mm 2 mps 716 mmHg 82%
    23:00 +15°C° 0 mm 1 mps 716 mmHg 83%

    Day after tomorrow, 26 April, Wednesday

    Time Temperature Precipitation Wind Pressure Humidity
    00:00 +15°C° 0 mm 1 mps 715 mmHg 84%
    01:00 +14°C° 0 mm 1 mps 715 mmHg 84%
    02:00 +14°C° 0 mm 1 mps 715 mmHg 84%
    03:00 +14°C° 0 mm 1 mps 715 mmHg 85%
    04:00 +14°C° 0 mm 1 mps 715 mmHg 83%
    05:00 +15°C° 0 mm 1 mps 715 mmHg 82%
    06:00 +15°C° 0 mm 1 mps 715 mmHg 81%
    07:00 +18°C° 0 mm 2 mps 716 mmHg 69%
    08:00 +20°C° 0 mm 2 mps 716 mmHg 57%
    09:00 +24°C° 0 mm 2 mps 716 mmHg 45%
    10:00 +25°C° 0 mm 3 mps 716 mmHg 41%
    11:00 +26°C° 0 mm 4 mps 716 mmHg 37%
    12:00 +27°C° 0 mm 4 mps 716 mmHg 32%
    13:00 +27°C° 0.1 mm 5 mps 716 mmHg 33%
    14:00 +27°C° 0.1 mm 5 mps 715 mmHg 34%
    15:00 +27°C° 0.1 mm 5 mps 715 mmHg 35%
    16:00 +25°C° 0 mm 4 mps 715 mmHg 39%
    17:00 +22°C° 0 mm 4 mps 714 mmHg 43%
    18:00 +21°C° 0 mm 3 mps 714 mmHg 47%
    19:00 +19°C° 0.1 mm 3 mps 715 mmHg 54%
    20:00 +17°C° 0.1 mm 2 mps 715 mmHg 60%
    21:00 +15°C° 0.1 mm 2 mps 716 mmHg 66%
    22:00 +15°C° 0 mm 2 mps 715 mmHg 67%
    23:00 +15°C° 0 mm 1 mps 715 mmHg 68%

    27 April, Thursday

    Time Temperature Precipitation Wind Pressure Humidity
    00:00 +14°C° 0 mm 1 mps 715 mmHg 69%
    01:00 +14°C° 0 mm 1 mps 715 mmHg 70%
    02:00 +14°C° 0 mm 1 mps 715 mmHg 70%
    03:00 +14°C° 0 mm 2 mps 715 mmHg 70%
    04:00 +15°C° 0 mm 1 mps 715 mmHg 69%
    05:00 +15°C° 0 mm 1 mps 715 mmHg 68%
    06:00 +15°C° 0 mm 1 mps 715 mmHg 67%
    07:00 +19°C° 0 mm 1 mps 715 mmHg 58%
    08:00 +20°C° 0 mm 2 mps 716 mmHg 49%
    09:00 +23°C° 0 mm 2 mps 716 mmHg 40%
    10:00 +24°C° 0 mm 3 mps 717 mmHg 38%
    11:00 +25°C° 0 mm 3 mps 717 mmHg 36%
    12:00 +26°C° 0 mm 4 mps 717 mmHg 34%
    13:00 +26°C° 0 mm 4 mps 716 mmHg 36%
    14:00 +25°C° 0 mm 4 mps 716 mmHg 38%
    15:00 +25°C° 0 mm 4 mps 716 mmHg 40%
    16:00 +23°C° 0 mm 4 mps 716 mmHg 46%
    17:00 +21°C° 0 mm 4 mps 716 mmHg 52%
    18:00 +20°C° 0 mm 4 mps 717 mmHg 58%
    19:00 +18°C° 0 mm 3 mps 717 mmHg 68%
    20:00 +16°C° 0 mm 3 mps 717 mmHg 79%
    21:00 +14°C° 0 mm 2 mps 718 mmHg 89%
    22:00 +14°C° 0 mm 2 mps 718 mmHg 91%
    23:00 +13°C° 0 mm 2 mps 718 mmHg 93%

    28 April, Friday

    Time Temperature Precipitation Wind Pressure Humidity
    00:00 +13°C° 0 mm 2 mps 717 mmHg 94%
    01:00 +13°C° 0 mm 2 mps 717 mmHg 94%
    02:00 +13°C° 0 mm 2 mps 717 mmHg 94%
    03:00 +12°C° 0 mm 2 mps 717 mmHg 93%
    04:00 +13°C° 0 mm 1 mps 717 mmHg 92%
    05:00 +14°C° 0 mm 1 mps 717 mmHg 90%
    06:00 +14°C° 0 mm 1 mps 717 mmHg 88%
    07:00 +16°C° 0 mm 1 mps 718 mmHg 77%
    08:00 +18°C° 0 mm 2 mps 718 mmHg 67%
    09:00 +20°C° 0 mm 2 mps 718 mmHg 56%
    10:00 +21°C° 0 mm 2 mps 718 mmHg 51%
    11:00 +24°C° 0 mm 3 mps 718 mmHg 47%
    12:00 +25°C° 0 mm 4 mps 718 mmHg 42%
    13:00 +25°C° 0.4 mm 4 mps 717 mmHg 46%
    14:00 +23°C° 0.4 mm 5 mps 717 mmHg 49%
    15:00 +23°C° 0.4 mm 5 mps 716 mmHg 53%
    16:00 +21°C° 0.3 mm 5 mps 716 mmHg 60%
    17:00 +19°C° 0.3 mm 5 mps 716 mmHg 66%
    18:00 +18°C° 0.3 mm 4 mps 716 mmHg 73%
    19:00 +17°C° 0.2 mm 3 mps 717 mmHg 78%
    20:00 +16°C° 0.2 mm 2 mps 718 mmHg 82%
    21:00 +15°C° 0.2 mm 2 mps 718 mmHg 87%
    22:00 +15°C° 0.1 mm 2 mps 718 mmHg 89%
    23:00 +14°C° 0.1 mm 1 mps 718 mmHg 91%

    29 April, Saturday

    Time Temperature Precipitation Wind Pressure Humidity
    00:00 +14°C° 0.1 mm 1 mps 718 mmHg 93%
    01:00 +13°C° 0 mm 1 mps 718 mmHg 93%
    02:00 +13°C° 0 mm 1 mps 718 mmHg 94%
    03:00 +12°C° 0 mm 1 mps 718 mmHg 95%
    04:00 +13°C° 0 mm 1 mps 718 mmHg 94%
    05:00 +13°C° 0 mm 1 mps 718 mmHg 93%
    06:00 +13°C° 0 mm 1 mps 718 mmHg 92%
    07:00 +15°C° 0 mm 1 mps 719 mmHg 84%
    08:00 +16°C° 0 mm 2 mps 719 mmHg 76%
    09:00 +17°C° 0 mm 2 mps 720 mmHg 68%
    10:00 +19°C° 0 mm 3 mps 720 mmHg 63%
    11:00 +20°C° 0 mm 3 mps 719 mmHg 57%
    12:00 +21°C° 0 mm 4 mps 719 mmHg 51%
    13:00 +21°C° 0 mm 4 mps 719 mmHg 49%
    14:00 +22°C° 0 mm 4 mps 719 mmHg 48%
    15:00 +22°C° 0 mm 4 mps 719 mmHg 47%
    16:00 +21°C° 0 mm 4 mps 719 mmHg 51%
    17:00 +20°C° 0 mm 3 mps 719 mmHg 55%
    18:00 +19°C° 0 mm 3 mps 719 mmHg 59%
    19:00 +17°C° 0 mm 2 mps 719 mmHg 69%
    20:00 +15°C° 0 mm 1 mps 719 mmHg 78%
    21:00 +13°C° 0 mm 1 mps 719 mmHg 88%
    22:00 +12°C° 0 mm 1 mps 719 mmHg 88%
    23:00 +12°C° 0 mm 1 mps 719 mmHg 88%
    Show more